Time,TemperatureF,DewpointF,PressureIn,WindDirection,WindDirectionDegrees,WindSpeedMPH,WindSpeedGustMPH,Humidity,HourlyPrecipIn,Conditions,Clouds,dailyrainin,SoftwareType,DateUTC
2013-07-11 00:00:00,63.7,37.6,29.68,SE,129,1.0,9.0,38,0.00,CLR,CLR,0.00,WeatherDisplay:10.37,2013-07-11 06:00:00,
2013-07-11 00:05:00,63.1,37.1,29.69,SE,124,2.0,6.0,38,0.00,CLR,CLR,0.00,WeatherDisplay:10.37,2013-07-11 06:05:00,
2013-07-11 00:10:00,62.6,37.3,29.69,ESE,116,2.0,5.0,39,0.00,CLR,CLR,0.00,WeatherDisplay:10.37,2013-07-11 06:10:00,
2013-07-11 00:15:00,62.0,37.4,29.68,ESE,121,3.0,6.0,40,0.00,CLR,CLR,0.00,WeatherDisplay:10.37,2013-07-11 06:15:00,
2013-07-11 00:20:00,61.7,37.7,29.68,SE,124,3.0,7.0,41,0.00,CLR,CLR,0.00,WeatherDisplay:10.37,2013-07-11 06:20:00,
2013-07-11 00:25:00,61.5,37.5,29.69,SE,126,2.0,6.0,41,0.00,CLR,CLR,0.00,WeatherDisplay:10.37,2013-07-11 06:25:00,
2013-07-11 00:30:00,61.4,36.8,29.69,SE,126,2.0,5.0,40,0.00,CLR,CLR,0.00,WeatherDisplay:10.37,2013-07-11 06:30:00,
2013-07-11 00:35:00,61.5,37.6,29.68,SE,128,5.0,6.0,41,0.00,CLR,CLR,0.00,WeatherDisplay:10.37,2013-07-11 06:35:00,
2013-07-11 00:40:00,61.2,37.9,29.68,SE,125,2.0,7.0,42,0.00,CLR,CLR,0.00,WeatherDisplay:10.37,2013-07-11 06:40:00,
2013-07-11 00:45:00,60.7,37.4,29.68,ESE,120,3.0,9.0,42,0.00,CLR,CLR,0.00,WeatherDisplay:10.37,2013-07-11 06:45:00,
2013-07-11 00:50:00,60.9,37.6,29.68,ESE,122,6.0,10.0,42,0.00,CLR,CLR,0.00,WeatherDisplay:10.37,2013-07-11 06:50:00,
2013-07-11 00:55:00,61.1,37.2,29.68,SE,128,5.0,7.0,41,0.00,CLR,CLR,0.00,WeatherDisplay:10.37,2013-07-11 06:55:00,
2013-07-11 01:00:00,61.0,36.5,29.68,SE,130,5.0,8.0,40,0.00,CLR,CLR,0.00,WeatherDisplay:10.37,2013-07-11 07:00:00,
2013-07-11 01:05:00,61.3,36.1,29.68,ESE,121,6.0,10.0,39,0.00,CLR,CLR,0.00,WeatherDisplay:10.37,2013-07-11 07:05:00,
2013-07-11 01:10:00,61.4,36.8,29.68,ESE,117,5.0,7.0,40,0.00,CLR,CLR,0.00,WeatherDisplay:10.37,2013-07-11 07:10:00,
2013-07-11 01:20:00,60.4,35.9,29.68,ESE,121,3.0,6.0,40,0.00,CLR,CLR,0.00,WeatherDisplay:10.37,2013-07-11 07:20:00,
2013-07-11 01:25:00,60.2,36.4,29.68,SE,125,5.0,7.0,41,0.00,CLR,CLR,0.00,WeatherDisplay:10.37,2013-07-11 07:25:00,
2013-07-11 01:30:00,60.2,36.4,29.68,ESE,121,5.0,7.0,41,0.00,CLR,CLR,0.00,WeatherDisplay:10.37,2013-07-11 07:30:00,
2013-07-11 01:35:00,60.2,36.4,29.68,ESE,117,2.0,8.0,41,0.00,CLR,CLR,0.00,WeatherDisplay:10.37,2013-07-11 07:35:00,
2013-07-11 01:40:00,60.1,36.3,29.68,ESE,121,3.0,9.0,41,0.00,CLR,CLR,0.00,WeatherDisplay:10.37,2013-07-11 07:40:00,
2013-07-11 01:45:00,59.9,36.1,29.68,SE,124,2.0,7.0,41,0.00,CLR,CLR,0.00,WeatherDisplay:10.37,2013-07-11 07:45:00,
2013-07-11 01:50:00,59.9,36.1,29.68,ESE,123,2.0,6.0,41,0.00,CLR,CLR,0.00,WeatherDisplay:10.37,2013-07-11 07:50:00,
2013-07-11 01:55:00,60.1,35.7,29.69,SE,126,5.0,7.0,40,0.00,CLR,CLR,0.00,WeatherDisplay:10.37,2013-07-11 07:55:00,
2013-07-11 02:00:00,59.8,36.0,29.70,SE,130,3.0,7.0,41,0.00,CLR,CLR,0.00,WeatherDisplay:10.37,2013-07-11 08:00:00,
2013-07-11 02:05:00,59.1,36.0,29.70,SE,135,3.0,5.0,42,0.00,CLR,CLR,0.00,WeatherDisplay:10.37,2013-07-11 08:05:00,
2013-07-11 02:10:00,58.7,35.7,29.70,SE,140,2.0,5.0,42,0.00,CLR,CLR,0.00,WeatherDisplay:10.37,2013-07-11 08:10:00,
2013-07-11 02:15:00,58.2,36.4,29.70,SE,136,1.0,5.0,44,0.00,CLR,CLR,0.00,WeatherDisplay:10.37,2013-07-11 08:15:00,
2013-07-11 02:20:00,57.6,36.4,29.69,SE,129,5.0,7.0,45,0.00,CLR,CLR,0.00,WeatherDisplay:10.37,2013-07-11 08:20:00,
2013-07-11 02:25:00,57.8,35.4,29.70,SE,136,5.0,7.0,43,0.00,CLR,CLR,0.00,WeatherDisplay:10.37,2013-07-11 08:25:00,
2013-07-11 02:30:00,57.9,35.5,29.70,SE,133,2.0,5.0,43,0.00,CLR,CLR,0.00,WeatherDisplay:10.37,2013-07-11 08:30:00,
2013-07-11 02:35:00,58.1,35.7,29.70,ESE,123,5.0,6.0,43,0.00,CLR,CLR,0.00,WeatherDisplay:10.37,2013-07-11 08:35:00,
2013-07-11 02:40:00,58.5,35.5,29.70,SE,127,6.0,9.0,42,0.00,CLR,CLR,0.00,WeatherDisplay:10.37,2013-07-11 08:40:00,
2013-07-11 02:45:00,59.0,35.9,29.70,SE,138,7.0,12.0,42,0.00,CLR,CLR,0.00,WeatherDisplay:10.37,2013-07-11 08:45:00,
2013-07-11 02:50:00,59.0,35.3,29.70,SE,136,5.0,10.0,41,0.00,CLR,CLR,0.00,WeatherDisplay:10.37,2013-07-11 08:50:00,
2013-07-11 02:55:00,59.9,35.5,29.70,SE,124,7.0,12.0,40,0.00,CLR,CLR,0.00,WeatherDisplay:10.37,2013-07-11 08:55:00,
2013-07-11 03:00:00,61.2,35.3,29.70,ESE,123,6.0,10.0,38,0.00,CLR,CLR,0.00,WeatherDisplay:10.37,2013-07-11 09:00:00,
2013-07-11 03:05:00,61.4,35.5,29.70,SE,126,5.0,7.0,38,0.00,CLR,CLR,0.00,WeatherDisplay:10.37,2013-07-11 09:05:00,
2013-07-11 03:10:00,61.4,35.5,29.69,ESE,123,5.0,7.0,38,0.00,CLR,CLR,0.00,WeatherDisplay:10.37,2013-07-11 09:10:00,
2013-07-11 03:15:00,61.1,35.3,29.69,ESE,121,6.0,9.0,38,0.00,CLR,CLR,0.00,WeatherDisplay:10.37,2013-07-11 09:15:00,
2013-07-11 03:20:00,60.8,35.7,29.70,SE,125,3.0,7.0,39,0.00,CLR,CLR,0.00,WeatherDisplay:10.37,2013-07-11 09:20:00,
2013-07-11 03:25:00,60.3,35.2,29.69,ESE,118,3.0,5.0,39,0.00,CLR,CLR,0.00,WeatherDisplay:10.37,2013-07-11 09:25:00,
2013-07-11 03:30:00,60.4,34.7,29.69,ESE,110,3.0,5.0,38,0.00,CLR,CLR,0.00,WeatherDisplay:10.37,2013-07-11 09:30:00,
2013-07-11 03:35:00,60.3,35.2,29.70,ESE,117,3.0,6.0,39,0.00,CLR,CLR,0.00,WeatherDisplay:10.37,2013-07-11 09:35:00,
2013-07-11 03:40:00,60.7,34.3,29.70,ESE,115,5.0,7.0,37,0.00,CLR,CLR,0.00,WeatherDisplay:10.37,2013-07-11 09:40:00,
2013-07-11 03:45:00,61.1,34.6,29.70,ESE,118,3.0,6.0,37,0.00,CLR,CLR,0.00,WeatherDisplay:10.37,2013-07-11 09:45:00,
2013-07-11 03:50:00,60.8,35.0,29.70,ESE,119,3.0,5.0,38,0.00,CLR,CLR,0.00,WeatherDisplay:10.37,2013-07-11 09:50:00,
2013-07-11 03:55:00,60.5,34.8,29.70,ESE,123,5.0,10.0,38,0.00,CLR,CLR,0.00,WeatherDisplay:10.37,2013-07-11 09:55:00,
2013-07-11 04:00:00,60.5,35.4,29.70,SE,133,5.0,6.0,39,0.00,CLR,CLR,0.00,WeatherDisplay:10.37,2013-07-11 10:00:00,
2013-07-11 04:05:00,60.1,34.3,29.70,SE,136,3.0,6.0,38,0.00,CLR,CLR,0.00,WeatherDisplay:10.37,2013-07-11 10:05:00,
2013-07-11 04:10:00,59.9,34.8,29.69,SE,127,3.0,7.0,39,0.00,CLR,CLR,0.00,WeatherDisplay:10.37,2013-07-11 10:10:00,
2013-07-11 04:20:00,59.2,35.5,29.69,ESE,123,3.0,7.0,41,0.00,CLR,CLR,0.00,WeatherDisplay:10.37,2013-07-11 10:20:00,
2013-07-11 04:25:00,59.1,35.4,29.69,ESE,123,3.0,9.0,41,0.00,CLR,CLR,0.00,WeatherDisplay:10.37,2013-07-11 10:25:00,
2013-07-11 04:30:00,59.8,35.4,29.69,ESE,121,7.0,12.0,40,0.00,CLR,CLR,0.00,WeatherDisplay:10.37,2013-07-11 10:30:00,
2013-07-11 04:35:00,60.5,34.7,29.70,ESE,119,7.0,12.0,38,0.00,CLR,CLR,0.00,WeatherDisplay:10.37,2013-07-11 10:35:00,
2013-07-11 04:40:00,60.5,35.4,29.70,SE,126,6.0,10.0,39,0.00,CLR,CLR,0.00,WeatherDisplay:10.37,2013-07-11 10:40:00,
2013-07-11 04:45:00,60.5,35.4,29.70,SE,126,5.0,7.0,39,0.00,CLR,CLR,0.00,WeatherDisplay:10.37,2013-07-11 10:45:00,
2013-07-11 04:50:00,60.0,35.6,29.69,SE,127,6.0,10.0,40,0.00,CLR,CLR,0.00,WeatherDisplay:10.37,2013-07-11 10:50:00,
2013-07-11 04:55:00,59.6,35.2,29.70,SE,130,5.0,8.0,40,0.00,CLR,CLR,0.00,WeatherDisplay:10.37,2013-07-11 10:55:00,
2013-07-11 05:00:00,59.0,34.7,29.70,SE,126,2.0,6.0,40,0.00,CLR,CLR,0.00,WeatherDisplay:10.37,2013-07-11 11:00:00,
2013-07-11 05:05:00,59.8,34.1,29.70,ESE,119,8.0,13.0,38,0.00,CLR,CLR,0.00,WeatherDisplay:10.37,2013-07-11 11:05:00,
2013-07-11 05:10:00,59.8,35.4,29.70,SE,127,6.0,7.0,40,0.00,CLR,CLR,0.00,WeatherDisplay:10.37,2013-07-11 11:10:00,
2013-07-11 05:15:00,59.0,35.3,29.70,SE,131,3.0,6.0,41,0.00,CLR,CLR,0.00,WeatherDisplay:10.37,2013-07-11 11:15:00,
2013-07-11 05:20:00,59.0,35.9,29.70,SE,126,5.0,7.0,42,0.00,CLR,CLR,0.00,WeatherDisplay:10.37,2013-07-11 11:20:00,
2013-07-11 05:25:00,59.0,35.9,29.70,ESE,120,5.0,10.0,42,0.00,CLR,CLR,0.00,WeatherDisplay:10.37,2013-07-11 11:25:00,
2013-07-11 05:30:00,58.5,36.1,29.70,ESE,120,6.0,9.0,43,0.00,CLR,CLR,0.00,WeatherDisplay:10.37,2013-07-11 11:30:00,
2013-07-11 05:35:00,58.4,35.9,29.70,ESE,115,2.0,6.0,43,0.00,CLR,CLR,0.00,WeatherDisplay:10.37,2013-07-11 11:35:00,
2013-07-11 05:40:00,58.2,36.4,29.70,ESE,107,3.0,7.0,44,0.00,CLR,CLR,0.00,WeatherDisplay:10.37,2013-07-11 11:40:00,
2013-07-11 05:45:00,57.8,36.6,29.70,ESE,121,5.0,7.0,45,0.00,CLR,CLR,0.00,WeatherDisplay:10.37,2013-07-11 11:45:00,
2013-07-11 05:55:00,57.6,37.0,29.71,SE,134,3.0,5.0,46,0.00,CLR,CLR,0.00,WeatherDisplay:10.37,2013-07-11 11:55:00,
2013-07-11 06:00:00,57.6,38.0,29.70,SE,138,6.0,9.0,48,0.00,CLR,CLR,0.00,WeatherDisplay:10.37,2013-07-11 12:00:00,
2013-07-11 06:05:00,57.8,37.7,29.70,SE,134,6.0,9.0,47,0.00,CLR,CLR,0.00,WeatherDisplay:10.37,2013-07-11 12:05:00,
2013-07-11 06:10:00,58.5,38.3,29.70,SE,127,6.0,9.0,47,0.00,CLR,CLR,0.00,WeatherDisplay:10.37,2013-07-11 12:10:00,
2013-07-11 06:15:00,59.0,38.7,29.70,SE,129,7.0,12.0,47,0.00,CLR,CLR,0.00,WeatherDisplay:10.37,2013-07-11 12:15:00,
2013-07-11 06:25:00,59.0,39.9,29.70,SE,127,3.0,7.0,49,0.00,CLR,CLR,0.00,WeatherDisplay:10.37,2013-07-11 12:25:00,
2013-07-11 06:30:00,59.1,39.9,29.71,ESE,114,3.0,5.0,49,0.00,CLR,CLR,0.00,WeatherDisplay:10.37,2013-07-11 12:30:00,
2013-07-11 06:35:00,59.7,39.9,29.71,ESE,116,1.0,6.0,48,0.00,CLR,CLR,0.00,WeatherDisplay:10.37,2013-07-11 12:35:00,
2013-07-11 06:40:00,60.0,41.3,29.70,SE,126,5.0,6.0,50,0.00,CLR,CLR,0.00,WeatherDisplay:10.37,2013-07-11 12:40:00,
2013-07-11 06:45:00,60.1,41.9,29.70,SE,127,1.0,6.0,51,0.00,CLR,CLR,0.00,WeatherDisplay:10.37,2013-07-11 12:45:00,
2013-07-11 06:50:00,60.5,42.3,29.70,ESE,120,1.0,4.0,51,0.00,CLR,CLR,0.00,WeatherDisplay:10.37,2013-07-11 12:50:00,
2013-07-11 06:55:00,60.8,43.1,29.71,ESE,119,0.0,3.0,52,0.00,CLR,CLR,0.00,WeatherDisplay:10.37,2013-07-11 12:55:00,
2013-07-11 07:00:00,60.9,43.1,29.71,ESE,119,0.0,0.0,52,0.00,CLR,CLR,0.00,WeatherDisplay:10.37,2013-07-11 13:00:00,
2013-07-11 07:05:00,61.0,43.2,29.71,ESE,119,0.0,0.0,52,0.00,CLR,CLR,0.00,WeatherDisplay:10.37,2013-07-11 13:05:00,
2013-07-11 07:10:00,61.2,43.9,29.71,ESE,112,2.0,5.0,53,0.00,CLR,CLR,0.00,WeatherDisplay:10.37,2013-07-11 13:10:00,
2013-07-11 07:15:00,61.8,41.9,29.71,ESE,112,6.0,12.0,48,0.00,CLR,CLR,0.00,WeatherDisplay:10.37,2013-07-11 13:15:00,
2013-07-11 07:25:00,62.2,43.8,29.71,ESE,110,1.0,6.0,51,0.00,CLR,CLR,0.00,WeatherDisplay:10.37,2013-07-11 13:25:00,
2013-07-11 07:30:00,62.1,44.3,29.71,ESE,117,3.0,7.0,52,0.00,CLR,CLR,0.00,WeatherDisplay:10.37,2013-07-11 13:30:00,
2013-07-11 07:35:00,62.3,44.4,29.71,SE,124,0.0,6.0,52,0.00,CLR,CLR,0.00,WeatherDisplay:10.37,2013-07-11 13:35:00,
2013-07-11 07:40:00,63.1,46.6,29.71,SE,129,0.0,4.0,55,0.00,CLR,CLR,0.00,WeatherDisplay:10.37,2013-07-11 13:40:00,
2013-07-11 07:45:00,64.1,46.1,29.71,ESE,107,0.0,4.0,52,0.00,CLR,CLR,0.00,WeatherDisplay:10.37,2013-07-11 13:45:00,
2013-07-11 07:50:00,64.8,46.8,29.71,ESE,102,0.0,0.0,52,0.00,CLR,CLR,0.00,WeatherDisplay:10.37,2013-07-11 13:50:00,
2013-07-11 08:00:00,65.8,47.7,29.71,ESE,102,0.0,1.0,52,0.00,CLR,CLR,0.00,WeatherDisplay:10.37,2013-07-11 14:00:00,
2013-07-11 08:05:00,66.2,47.6,29.71,ESE,102,0.0,0.0,51,0.00,CLR,CLR,0.00,WeatherDisplay:10.37,2013-07-11 14:05:00,
2013-07-11 08:10:00,66.5,48.3,29.71,ESE,102,0.0,0.0,52,0.00,CLR,CLR,0.00,WeatherDisplay:10.37,2013-07-11 14:10:00,
2013-07-11 08:15:00,66.7,49.0,29.71,ESE,102,0.0,0.0,53,0.00,CLR,CLR,0.00,WeatherDisplay:10.37,2013-07-11 14:15:00,
2013-07-11 08:20:00,66.9,48.7,29.71,ESE,102,0.0,0.0,52,0.00,CLR,CLR,0.00,WeatherDisplay:10.37,2013-07-11 14:20:00,
2013-07-11 08:25:00,67.3,49.5,29.71,ESE,102,0.0,0.0,53,0.00,CLR,CLR,0.00,WeatherDisplay:10.37,2013-07-11 14:25:00,
2013-07-11 08:30:00,67.9,50.2,29.71,ESE,102,0.0,0.0,53,0.00,CLR,CLR,0.00,WeatherDisplay:10.37,2013-07-11 14:30:00,
2013-07-11 08:35:00,68.6,47.6,29.71,ESE,102,0.0,0.0,47,0.00,CLR,CLR,0.00,WeatherDisplay:10.37,2013-07-11 14:35:00,
2013-07-11 08:40:00,69.7,50.2,29.71,ESE,102,0.0,0.0,50,0.00,CLR,CLR,0.00,WeatherDisplay:10.37,2013-07-11 14:40:00,
2013-07-11 08:45:00,70.8,47.2,29.71,ESE,102,0.0,0.0,43,0.00,CLR,CLR,0.00,WeatherDisplay:10.37,2013-07-11 14:45:00,
2013-07-11 08:50:00,71.5,48.5,29.71,ESE,102,0.0,0.0,44,0.00,CLR,CLR,0.00,WeatherDisplay:10.37,2013-07-11 14:50:00,
2013-07-11 08:55:00,72.1,47.7,29.71,ESE,102,0.0,0.0,42,0.00,CLR,CLR,0.00,WeatherDisplay:10.37,2013-07-11 14:55:00,
2013-07-11 09:00:00,72.4,45.4,29.71,ESE,102,0.0,1.0,38,0.00,CLR,CLR,0.00,WeatherDisplay:10.37,2013-07-11 15:00:00,
2013-07-11 09:05:00,72.8,45.0,29.71,ESE,102,0.0,1.0,37,0.00,CLR,CLR,0.00,WeatherDisplay:10.37,2013-07-11 15:05:00,
2013-07-11 09:15:00,73.9,44.5,29.70,ESE,102,0.0,0.0,35,0.00,CLR,CLR,0.00,WeatherDisplay:10.37,2013-07-11 15:15:00,
2013-07-11 09:20:00,75.0,44.7,29.70,ESE,102,0.0,0.0,34,0.00,CLR,CLR,0.00,WeatherDisplay:10.37,2013-07-11 15:20:00,
2013-07-11 09:25:00,75.9,47.0,29.70,ESE,102,0.0,1.0,36,0.00,CLR,CLR,0.00,WeatherDisplay:10.37,2013-07-11 15:25:00,
2013-07-11 09:35:00,77.4,46.8,29.70,ESE,102,1.0,3.0,34,0.00,CLR,CLR,0.00,WeatherDisplay:10.37,2013-07-11 15:35:00,
2013-07-11 09:40:00,77.8,47.2,29.69,ESE,102,0.0,1.0,34,0.00,CLR,CLR,0.00,WeatherDisplay:10.37,2013-07-11 15:40:00,
2013-07-11 09:45:00,78.2,46.0,29.69,ESE,102,0.0,1.0,32,0.00,CLR,CLR,0.00,WeatherDisplay:10.37,2013-07-11 15:45:00,
2013-07-11 09:50:00,78.7,46.4,29.69,ESE,102,0.0,1.0,32,0.00,CLR,CLR,0.00,WeatherDisplay:10.37,2013-07-11 15:50:00,
2013-07-11 09:55:00,79.0,48.3,29.69,East,93,0.0,3.0,34,0.00,CLR,CLR,0.00,WeatherDisplay:10.37,2013-07-11 15:55:00,
2013-07-11 10:00:00,79.1,47.5,29.68,NNW,338,1.0,4.0,33,0.00,CLR,CLR,0.00,WeatherDisplay:10.37,2013-07-11 16:00:00,
2013-07-11 10:05:00,79.5,48.6,29.68,NNW,330,0.0,5.0,34,0.00,CLR,CLR,0.00,WeatherDisplay:10.37,2013-07-11 16:05:00,
2013-07-11 10:10:00,80.0,49.1,29.68,NW,315,1.0,3.0,34,0.00,CLR,CLR,0.00,WeatherDisplay:10.37,2013-07-11 16:10:00,
2013-07-11 10:15:00,80.2,50.1,29.68,WNW,287,0.0,5.0,35,0.00,CLR,CLR,0.00,WeatherDisplay:10.37,2013-07-11 16:15:00,
2013-07-11 10:20:00,80.3,47.7,29.68,West,268,2.0,7.0,32,0.00,CLR,CLR,0.00,WeatherDisplay:10.37,2013-07-11 16:20:00,
2013-07-11 10:25:00,80.5,47.9,29.67,West,262,1.0,5.0,32,0.00,CLR,CLR,0.00,WeatherDisplay:10.37,2013-07-11 16:25:00,
2013-07-11 10:30:00,80.5,48.7,29.67,West,261,0.0,2.0,33,0.00,CLR,CLR,0.00,WeatherDisplay:10.37,2013-07-11 16:30:00,
2013-07-11 10:35:00,80.0,48.3,29.67,West,264,0.0,3.0,33,0.00,CLR,CLR,0.00,WeatherDisplay:10.37,2013-07-11 16:35:00,
2013-07-11 10:40:00,80.4,49.5,29.67,WSW,250,1.0,3.0,34,0.00,CLR,CLR,0.00,WeatherDisplay:10.37,2013-07-11 16:40:00,
2013-07-11 10:45:00,81.2,48.6,29.67,WSW,239,0.0,1.0,32,0.00,CLR,CLR,0.00,WeatherDisplay:10.37,2013-07-11 16:45:00,
2013-07-11 10:50:00,81.7,48.1,29.67,WSW,239,1.0,5.0,31,0.00,CLR,CLR,0.00,WeatherDisplay:10.37,2013-07-11 16:50:00,
2013-07-11 10:55:00,82.0,49.2,29.67,SW,234,0.0,5.0,32,0.00,CLR,CLR,0.00,WeatherDisplay:10.37,2013-07-11 16:55:00,
2013-07-11 11:00:00,82.1,46.7,29.67,SW,236,0.0,8.0,29,0.00,CLR,CLR,0.00,WeatherDisplay:10.37,2013-07-11 17:00:00,
2013-07-11 11:05:00,82.5,47.9,29.67,WSW,239,1.0,3.0,30,0.00,CLR,CLR,0.00,WeatherDisplay:10.37,2013-07-11 17:05:00,
2013-07-11 11:15:00,83.1,47.6,29.66,SW,233,0.0,1.0,29,0.00,CLR,CLR,0.00,WeatherDisplay:10.37,2013-07-11 17:15:00,
2013-07-11 11:20:00,83.6,48.9,29.66,SW,235,0.0,1.0,30,0.00,CLR,CLR,0.00,WeatherDisplay:10.37,2013-07-11 17:20:00,
2013-07-11 11:25:00,84.5,46.9,29.66,West,265,0.0,4.0,27,0.00,CLR,CLR,0.00,WeatherDisplay:10.37,2013-07-11 17:25:00,
2013-07-11 11:35:00,86.4,51.3,29.66,West,272,0.0,4.0,30,0.00,CLR,CLR,0.00,WeatherDisplay:10.37,2013-07-11 17:35:00,
2013-07-11 11:40:00,87.1,51.0,29.65,West,270,0.0,3.0,29,0.00,CLR,CLR,0.00,WeatherDisplay:10.37,2013-07-11 17:40:00,
2013-07-11 11:50:00,87.3,48.2,29.65,West,271,0.0,2.0,26,0.00,CLR,CLR,0.00,WeatherDisplay:10.37,2013-07-11 17:50:00,
2013-07-11 12:00:00,87.9,48.7,29.64,NNW,341,1.0,4.0,26,0.00,CLR,CLR,0.00,WeatherDisplay:10.37,2013-07-11 18:00:00,
2013-07-11 12:05:00,88.2,50.0,29.64,NW,304,1.0,6.0,27,0.00,CLR,CLR,0.00,WeatherDisplay:10.37,2013-07-11 18:05:00,
2013-07-11 12:15:00,88.5,48.2,29.64,WSW,253,0.0,1.0,25,0.00,CLR,CLR,0.00,WeatherDisplay:10.37,2013-07-11 18:15:00,
2013-07-11 12:20:00,89.0,49.7,29.64,WSW,240,0.0,5.0,26,0.00,CLR,CLR,0.00,WeatherDisplay:10.37,2013-07-11 18:20:00,
2013-07-11 12:25:00,89.4,47.8,29.63,WNW,286,1.0,4.0,24,0.00,CLR,CLR,0.00,WeatherDisplay:10.37,2013-07-11 18:25:00,
2013-07-11 12:30:00,89.6,48.0,29.63,NW,321,0.0,4.0,24,0.00,CLR,CLR,0.00,WeatherDisplay:10.37,2013-07-11 18:30:00,
2013-07-11 12:35:00,89.9,50.4,29.63,West,275,2.0,7.0,26,0.00,CLR,CLR,0.00,WeatherDisplay:10.37,2013-07-11 18:35:00,
2013-07-11 12:40:00,90.1,54.4,29.63,SW,224,0.0,2.0,30,0.00,CLR,CLR,0.00,WeatherDisplay:10.37,2013-07-11 18:40:00,
2013-07-11 12:50:00,90.3,50.8,29.62,SW,225,1.0,6.0,26,0.00,CLR,CLR,0.00,WeatherDisplay:10.37,2013-07-11 18:50:00,
2013-07-11 12:55:00,90.1,51.6,29.62,SW,215,0.0,4.0,27,0.00,CLR,CLR,0.00,WeatherDisplay:10.37,2013-07-11 18:55:00,
2013-07-11 13:00:00,90.5,48.7,29.62,SW,225,0.0,1.0,24,0.00,CLR,CLR,0.00,WeatherDisplay:10.37,2013-07-11 19:00:00,
2013-07-11 13:05:00,91.0,50.3,29.61,NW,324,0.0,4.0,25,0.00,CLR,CLR,0.00,WeatherDisplay:10.37,2013-07-11 19:05:00,
2013-07-11 13:10:00,91.2,53.6,29.61,NW,324,0.0,2.0,28,0.00,CLR,CLR,0.00,WeatherDisplay:10.37,2013-07-11 19:10:00,
2013-07-11 13:20:00,91.7,49.8,29.60,West,264,0.0,5.0,24,0.00,CLR,CLR,0.00,WeatherDisplay:10.37,2013-07-11 19:20:00,
2013-07-11 13:30:00,91.6,53.9,29.60,East,84,0.0,10.0,28,0.00,CLR,CLR,0.00,WeatherDisplay:10.37,2013-07-11 19:30:00,
2013-07-11 13:35:00,91.7,50.9,29.60,WSW,251,3.0,10.0,25,0.00,CLR,CLR,0.00,WeatherDisplay:10.37,2013-07-11 19:35:00,
2013-07-11 13:40:00,91.5,52.8,29.60,WSW,243,1.0,14.0,27,0.00,CLR,CLR,0.00,WeatherDisplay:10.37,2013-07-11 19:40:00,
2013-07-11 13:45:00,91.7,50.9,29.59,SW,236,1.0,7.0,25,0.00,CLR,CLR,0.00,WeatherDisplay:10.37,2013-07-11 19:45:00,
2013-07-11 13:50:00,91.9,51.0,29.59,West,264,2.0,9.0,25,0.00,CLR,CLR,0.00,WeatherDisplay:10.37,2013-07-11 19:50:00,
2013-07-11 14:00:00,92.6,51.6,29.59,NW,313,1.0,9.0,25,0.00,CLR,CLR,0.00,WeatherDisplay:10.37,2013-07-11 20:00:00,
2013-07-11 14:05:00,92.8,51.8,29.59,NW,305,1.0,9.0,25,0.00,CLR,CLR,0.00,WeatherDisplay:10.37,2013-07-11 20:05:00,
2013-07-11 14:10:00,92.6,51.6,29.59,WSW,257,2.0,12.0,25,0.00,CLR,CLR,0.00,WeatherDisplay:10.37,2013-07-11 20:10:00,
2013-07-11 14:20:00,91.4,50.6,29.59,WSW,249,0.0,5.0,25,0.00,CLR,CLR,0.00,WeatherDisplay:10.37,2013-07-11 20:20:00,
2013-07-11 14:25:00,91.5,51.7,29.58,WSW,250,0.0,4.0,26,0.00,CLR,CLR,0.00,WeatherDisplay:10.37,2013-07-11 20:25:00,
2013-07-11 14:30:00,92.3,51.4,29.58,WSW,249,1.0,10.0,25,0.00,CLR,CLR,0.00,WeatherDisplay:10.37,2013-07-11 20:30:00,
2013-07-11 14:35:00,92.5,51.5,29.57,West,261,0.0,10.0,25,0.00,CLR,CLR,0.00,WeatherDisplay:10.37,2013-07-11 20:35:00,
2013-07-11 14:45:00,92.2,52.4,29.57,West,261,0.0,3.0,26,0.00,CLR,CLR,0.00,WeatherDisplay:10.37,2013-07-11 20:45:00,
2013-07-11 14:50:00,92.3,49.1,29.56,West,275,5.0,14.0,23,0.00,CLR,CLR,0.00,WeatherDisplay:10.37,2013-07-11 20:50:00,
2013-07-11 14:55:00,92.8,52.9,29.56,West,271,1.0,5.0,26,0.00,CLR,CLR,0.00,WeatherDisplay:10.37,2013-07-11 20:55:00,
2013-07-11 15:00:00,93.1,51.0,29.56,West,274,0.0,10.0,24,0.00,CLR,CLR,0.00,WeatherDisplay:10.37,2013-07-11 21:00:00,
2013-07-11 15:05:00,93.3,50.0,29.55,WNW,283,1.0,5.0,23,0.00,CLR,CLR,0.00,WeatherDisplay:10.37,2013-07-11 21:05:00,
2013-07-11 15:10:00,93.2,51.0,29.55,West,277,1.0,9.0,24,0.00,CLR,CLR,0.00,WeatherDisplay:10.37,2013-07-11 21:10:00,
2013-07-11 15:15:00,92.2,51.3,29.55,West,266,3.0,6.0,25,0.00,CLR,CLR,0.00,WeatherDisplay:10.37,2013-07-11 21:15:00,
2013-07-11 15:20:00,91.5,50.7,29.55,WSW,249,2.0,8.0,25,0.00,CLR,CLR,0.00,WeatherDisplay:10.37,2013-07-11 21:20:00,
2013-07-11 15:35:00,91.8,51.0,29.54,NW,319,3.0,10.0,25,0.00,CLR,CLR,0.00,WeatherDisplay:10.37,2013-07-11 21:35:00,
2013-07-11 15:40:00,91.8,53.1,29.54,West,280,6.0,13.0,27,0.00,CLR,CLR,0.00,WeatherDisplay:10.37,2013-07-11 21:40:00,
2013-07-11 15:45:00,91.5,51.8,29.54,West,266,6.0,12.0,26,0.00,CLR,CLR,0.00,WeatherDisplay:10.37,2013-07-11 21:45:00,
2013-07-11 15:55:00,90.1,48.4,29.53,West,277,0.0,7.0,24,0.00,CLR,CLR,0.00,WeatherDisplay:10.37,2013-07-11 21:55:00,
2013-07-11 16:00:00,89.9,51.4,29.53,WNW,282,0.0,2.0,27,0.00,CLR,CLR,0.00,WeatherDisplay:10.37,2013-07-11 22:00:00,
2013-07-11 16:05:00,89.5,50.1,29.53,West,277,0.0,1.0,26,0.00,CLR,CLR,0.00,WeatherDisplay:10.37,2013-07-11 22:05:00,
2013-07-11 16:15:00,88.3,49.1,29.52,West,279,5.0,10.0,26,0.00,CLR,CLR,0.00,WeatherDisplay:10.37,2013-07-11 22:15:00,
2013-07-11 16:20:00,88.0,49.8,29.52,WNW,284,0.0,3.0,27,0.00,CLR,CLR,0.00,WeatherDisplay:10.37,2013-07-11 22:20:00,
2013-07-11 16:25:00,87.5,49.4,29.52,West,263,0.0,5.0,27,0.00,CLR,CLR,0.00,WeatherDisplay:10.37,2013-07-11 22:25:00,
2013-07-11 16:30:00,87.1,55.3,29.53,WSW,254,0.0,3.0,34,0.00,CLR,CLR,0.00,WeatherDisplay:10.37,2013-07-11 22:30:00,
2013-07-11 16:35:00,86.3,53.0,29.52,West,265,0.0,1.0,32,0.00,CLR,CLR,0.00,WeatherDisplay:10.37,2013-07-11 22:35:00,
2013-07-11 16:40:00,85.6,56.3,29.52,WNW,288,0.0,2.0,37,0.00,CLR,CLR,0.00,WeatherDisplay:10.37,2013-07-11 22:40:00,
2013-07-11 16:50:00,84.0,54.9,29.52,North,350,1.0,6.0,37,0.00,CLR,CLR,0.00,WeatherDisplay:10.37,2013-07-11 22:50:00,
2013-07-11 16:55:00,83.5,56.7,29.53,NNE,18,1.0,12.0,40,0.02,RA,RA,0.02,WeatherDisplay:10.37,2013-07-11 22:55:00,
2013-07-11 17:05:00,76.5,53.0,29.56,South,187,15.0,24.0,44,0.03,RA,RA,0.06,WeatherDisplay:10.37,2013-07-11 23:05:00,
2013-07-11 17:10:00,75.0,54.0,29.56,South,186,17.0,24.0,48,0.01,RA,RA,0.07,WeatherDisplay:10.37,2013-07-11 23:10:00,
2013-07-11 17:15:00,75.0,52.8,29.56,South,184,16.0,24.0,46,0.01,RA,RA,0.08,WeatherDisplay:10.37,2013-07-11 23:15:00,
2013-07-11 17:20:00,75.3,53.1,29.56,South,182,13.0,30.0,46,0.01,RA,RA,0.09,WeatherDisplay:10.37,2013-07-11 23:20:00,
2013-07-11 17:25:00,75.7,52.9,29.58,South,185,6.0,22.0,45,0.00,RA,RA,0.09,WeatherDisplay:10.37,2013-07-11 23:25:00,
2013-07-11 17:30:00,75.8,51.0,29.59,SSW,204,9.0,13.0,42,0.00,,,0.09,WeatherDisplay:10.37,2013-07-11 23:30:00,
2013-07-11 17:45:00,76.9,50.7,29.59,SW,229,8.0,17.0,40,0.00,CLR,CLR,0.09,WeatherDisplay:10.37,2013-07-11 23:45:00,
2013-07-11 17:50:00,76.8,49.3,29.59,WSW,242,8.0,25.0,38,0.00,CLR,CLR,0.09,WeatherDisplay:10.37,2013-07-11 23:50:00,
2013-07-11 17:55:00,77.1,50.2,29.60,WSW,241,9.0,13.0,39,0.00,CLR,CLR,0.09,WeatherDisplay:10.37,2013-07-11 23:55:00,
2013-07-11 18:00:00,77.2,49.6,29.60,SW,224,6.0,13.0,38,0.00,CLR,CLR,0.09,WeatherDisplay:10.37,2013-07-12 00:00:00,
2013-07-11 18:05:00,77.8,47.2,29.61,SW,224,5.0,12.0,34,0.00,CLR,CLR,0.09,WeatherDisplay:10.37,2013-07-12 00:05:00,
2013-07-11 18:10:00,78.5,48.6,29.62,SW,228,1.0,6.0,35,0.00,CLR,CLR,0.09,WeatherDisplay:10.37,2013-07-12 00:10:00,
2013-07-11 18:15:00,77.5,50.6,29.62,WSW,246,2.0,9.0,39,0.00,CLR,CLR,0.09,WeatherDisplay:10.37,2013-07-12 00:15:00,
2013-07-11 18:20:00,76.3,50.2,29.63,SSE,147,1.0,12.0,40,0.00,CLR,CLR,0.09,WeatherDisplay:10.37,2013-07-12 00:20:00,
2013-07-11 18:30:00,75.4,51.3,29.63,SE,143,3.0,14.0,43,0.00,CLR,CLR,0.09,WeatherDisplay:10.37,2013-07-12 00:30:00,
2013-07-11 18:35:00,75.0,51.6,29.63,SE,127,1.0,12.0,44,0.00,CLR,CLR,0.09,WeatherDisplay:10.37,2013-07-12 00:35:00,
2013-07-11 18:45:00,74.4,53.4,29.61,East,92,2.0,9.0,48,0.00,CLR,CLR,0.09,WeatherDisplay:10.37,2013-07-12 00:45:00,
2013-07-11 18:50:00,73.7,53.9,29.62,East,99,6.0,10.0,50,0.00,CLR,CLR,0.09,WeatherDisplay:10.37,2013-07-12 00:50:00,
2013-07-11 18:55:00,73.6,52.1,29.62,ESE,122,9.0,14.0,47,0.00,CLR,CLR,0.09,WeatherDisplay:10.37,2013-07-12 00:55:00,
2013-07-11 19:00:00,73.4,52.5,29.62,SSE,157,10.0,18.0,48,0.00,CLR,CLR,0.09,WeatherDisplay:10.37,2013-07-12 01:00:00,
2013-07-11 19:05:00,73.9,51.8,29.63,SSE,154,10.0,20.0,46,0.00,CLR,CLR,0.09,WeatherDisplay:10.37,2013-07-12 01:05:00,
2013-07-11 19:10:00,74.3,51.6,29.64,SSE,148,7.0,17.0,45,0.00,CLR,CLR,0.09,WeatherDisplay:10.37,2013-07-12 01:10:00,
2013-07-11 19:15:00,74.5,51.2,29.65,SE,145,9.0,16.0,44,0.00,CLR,CLR,0.09,WeatherDisplay:10.37,2013-07-12 01:15:00,
2013-07-11 19:30:00,73.7,53.3,29.66,South,191,15.0,21.0,49,0.00,CLR,CLR,0.09,WeatherDisplay:10.37,2013-07-12 01:30:00,
2013-07-11 19:40:00,68.6,53.2,29.66,South,177,7.0,14.0,58,0.00,RA,RA,0.12,WeatherDisplay:10.37,2013-07-12 01:40:00,
2013-07-11 19:45:00,68.1,55.0,29.65,SSE,155,2.0,6.0,63,0.00,,,0.12,WeatherDisplay:10.37,2013-07-12 01:45:00,
2013-07-11 19:50:00,67.5,53.6,29.66,SSE,150,8.0,15.0,61,0.00,CLR,CLR,0.12,WeatherDisplay:10.37,2013-07-12 01:50:00,
2013-07-11 19:55:00,68.3,54.8,29.67,South,170,0.0,10.0,62,0.00,CLR,CLR,0.12,WeatherDisplay:10.37,2013-07-12 01:55:00,
2013-07-11 20:05:00,68.4,54.5,29.66,East,89,0.0,9.0,61,0.00,CLR,CLR,0.12,WeatherDisplay:10.37,2013-07-12 02:05:00,
2013-07-11 20:15:00,69.1,54.6,29.67,East,87,3.0,14.0,60,0.00,CLR,CLR,0.12,WeatherDisplay:10.37,2013-07-12 02:15:00,
2013-07-11 20:20:00,69.0,53.2,29.67,North,6,8.0,14.0,57,0.00,CLR,CLR,0.12,WeatherDisplay:10.37,2013-07-12 02:20:00,
2013-07-11 20:25:00,69.6,53.7,29.68,NNE,16,2.0,13.0,57,0.00,CLR,CLR,0.12,WeatherDisplay:10.37,2013-07-12 02:25:00,
2013-07-11 20:30:00,69.5,52.6,29.68,NE,54,2.0,7.0,55,0.00,CLR,CLR,0.12,WeatherDisplay:10.37,2013-07-12 02:30:00,
2013-07-11 20:35:00,69.1,53.7,29.68,East,100,0.0,5.0,58,0.00,CLR,CLR,0.12,WeatherDisplay:10.37,2013-07-12 02:35:00,
2013-07-11 20:45:00,68.4,52.6,29.69,East,88,0.0,1.0,57,0.00,CLR,CLR,0.12,WeatherDisplay:10.37,2013-07-12 02:45:00,
2013-07-11 20:50:00,68.6,53.3,29.69,East,87,0.0,1.0,58,0.00,CLR,CLR,0.12,WeatherDisplay:10.37,2013-07-12 02:50:00,
2013-07-11 20:55:00,68.9,53.0,29.70,East,91,0.0,0.0,57,0.00,CLR,CLR,0.12,WeatherDisplay:10.37,2013-07-12 02:55:00,
2013-07-11 21:10:00,68.1,52.7,29.72,SSW,193,2.0,9.0,58,0.00,CLR,CLR,0.12,WeatherDisplay:10.37,2013-07-12 03:10:00,
2013-07-11 21:20:00,70.1,54.2,29.73,West,263,2.0,7.0,57,0.00,CLR,CLR,0.12,WeatherDisplay:10.37,2013-07-12 03:20:00,
2013-07-11 21:25:00,70.2,55.6,29.74,West,265,3.0,7.0,60,0.01,RA,RA,0.13,WeatherDisplay:10.37,2013-07-12 03:25:00,
2013-07-11 21:30:00,69.1,56.0,29.75,West,264,3.0,8.0,63,0.00,RA,RA,0.13,WeatherDisplay:10.37,2013-07-12 03:30:00,
2013-07-11 21:40:00,67.5,56.2,29.75,West,259,1.0,5.0,67,0.00,CLR,CLR,0.13,WeatherDisplay:10.37,2013-07-12 03:40:00,
2013-07-11 21:45:00,67.1,56.2,29.75,SW,227,1.0,3.0,68,0.00,CLR,CLR,0.13,WeatherDisplay:10.37,2013-07-12 03:45:00,
2013-07-11 21:50:00,66.9,56.0,29.75,SSW,211,0.0,4.0,68,0.00,CLR,CLR,0.13,WeatherDisplay:10.37,2013-07-12 03:50:00,
2013-07-11 22:00:00,65.9,56.6,29.75,SSW,200,1.0,3.0,72,0.00,CLR,CLR,0.13,WeatherDisplay:10.37,2013-07-12 04:00:00,
2013-07-11 22:05:00,65.6,56.3,29.76,SSW,200,0.0,1.0,72,0.00,CLR,CLR,0.13,WeatherDisplay:10.37,2013-07-12 04:05:00,
2013-07-11 22:10:00,65.5,57.7,29.76,SSW,200,0.0,0.0,76,0.00,CLR,CLR,0.13,WeatherDisplay:10.37,2013-07-12 04:10:00,
2013-07-11 22:15:00,65.2,57.8,29.76,SSW,200,0.0,0.0,77,0.00,CLR,CLR,0.13,WeatherDisplay:10.37,2013-07-12 04:15:00,
2013-07-11 22:20:00,64.6,56.9,29.76,SSW,200,0.0,0.0,76,0.00,CLR,CLR,0.13,WeatherDisplay:10.37,2013-07-12 04:20:00,
2013-07-11 22:25:00,64.4,57.4,29.76,SSW,200,0.0,0.0,78,0.00,CLR,CLR,0.13,WeatherDisplay:10.37,2013-07-12 04:25:00,
2013-07-11 22:30:00,64.3,57.6,29.75,SSW,200,0.0,0.0,79,0.00,CLR,CLR,0.13,WeatherDisplay:10.37,2013-07-12 04:30:00,
2013-07-11 22:35:00,64.1,57.5,29.76,SSW,200,0.0,0.0,79,0.00,CLR,CLR,0.13,WeatherDisplay:10.37,2013-07-12 04:35:00,
2013-07-11 22:40:00,64.0,58.1,29.76,SSW,200,0.0,0.0,81,0.00,CLR,CLR,0.13,WeatherDisplay:10.37,2013-07-12 04:40:00,
2013-07-11 22:45:00,63.6,58.0,29.73,SE,144,5.0,7.0,82,0.00,CLR,CLR,0.13,WeatherDisplay:10.37,2013-07-12 04:45:00,
2013-07-11 22:55:00,63.1,57.9,29.75,SE,129,0.0,3.0,83,0.00,RA,RA,0.14,WeatherDisplay:10.37,2013-07-12 04:55:00,
2013-07-11 23:00:00,63.0,57.8,29.74,SE,132,0.0,1.0,83,0.00,,,0.14,WeatherDisplay:10.37,2013-07-12 05:00:00,
2013-07-11 23:10:00,62.7,57.5,29.73,SE,141,5.0,7.0,83,0.00,CLR,CLR,0.14,WeatherDisplay:10.37,2013-07-12 05:10:00,
2013-07-11 23:15:00,62.7,57.5,29.72,SE,143,1.0,5.0,83,0.00,CLR,CLR,0.14,WeatherDisplay:10.37,2013-07-12 05:15:00,
2013-07-11 23:20:00,62.8,57.9,29.73,SE,144,0.0,2.0,84,0.00,CLR,CLR,0.14,WeatherDisplay:10.37,2013-07-12 05:20:00,
2013-07-11 23:25:00,62.7,57.5,29.72,SE,144,0.0,3.0,83,0.00,CLR,CLR,0.14,WeatherDisplay:10.37,2013-07-12 05:25:00,
2013-07-11 23:30:00,62.6,57.3,29.72,SE,144,0.0,3.0,83,0.00,CLR,CLR,0.14,WeatherDisplay:10.37,2013-07-12 05:30:00,
2013-07-11 23:35:00,62.4,57.2,29.72,SE,144,0.0,1.0,83,0.00,CLR,CLR,0.14,WeatherDisplay:10.37,2013-07-12 05:35:00,
2013-07-11 23:40:00,62.3,57.1,29.72,SE,144,0.0,0.0,83,0.00,CLR,CLR,0.14,WeatherDisplay:10.37,2013-07-12 05:40:00,
2013-07-11 23:45:00,62.2,57.0,29.72,SE,144,0.0,0.0,83,0.00,CLR,CLR,0.14,WeatherDisplay:10.37,2013-07-12 05:45:00,
2013-07-11 23:50:00,62.2,57.0,29.72,SE,144,0.0,0.0,83,0.00,CLR,CLR,0.14,WeatherDisplay:10.37,2013-07-12 05:50:00,
2013-07-11 23:55:00,62.2,56.9,29.72,SE,144,0.0,0.0,83,0.00,CLR,CLR,0.14,WeatherDisplay:10.37,2013-07-12 05:55:00,